ASTROSAT

Last updated on Fri Dec 19 2025 00:03:36 GMT+0000 (Coordinated Universal Time)

1 40930U 15052A 25352.23515363 .00001715 00000+0 12875-3 0 9993 2 40930 5.9974 17.4393 0008430 328.7872 31.1755 14.82031698552939
UTC large
Height (km)
Speed (km/s)
/
Latitude / Longitude
Inclination (degrees)
Orbital Period (minutes)
Azimuth
Elevation
Range (km)
Doppler Factor

Next 0 passes for location: London (51.5072 / 0.1276)

Sorry there are no passes over London.